Flag for U.S.A. Weather past 2 weeks in Grand Prairie, Texas, U.S.A.

Now
64 °F

Low clouds.


Feels Like: 64 °F
Forecast: 67 / 86 °F
Wind: 6 mph from South

Location: Grand Prairie Municipal Airport

Current Time: May 26, 2015 at 3:06:52 AM

Latest Report: May 26, 2015 at 2:15 AM


Visibility: 4 mi

Pressure: 29.93 "Hg

Humidity: 100%

Dew point: 64 °F

Location of Grand PrairieLocation

Historic Weather in Grand Prairie — Graph

°F

Grand Prairie temperature yesterday

Maximum temperature yesterday: 79 °F (at 2:50 PM)
Minimum temperature yesterday: 63 °F (at 5:50 PM)
Average temperature yesterday: 69 °F

Past Weeks' High & Low Weather Summary

 TemperatureHumidityPressure
High88 °F (May 18, 4:50 PM)100% (May 11, 1:15 AM)30.29 "Hg (May 11, 1:15 AM)
Low55 °F (May 21, 8:50 AM)37% (May 14, 2:50 PM)29.74 "Hg (May 16, 6:50 PM)
Average70 °F89%30.02 "Hg
* Reported May 11 1:15 AM — May 26 1:55 AM, Grand Prairie, Weather by CustomWeather, © 2015

Note: Actual official high and low records may vary slightly from our data, if they occured in-between our weather recording intervals... More about our weather records

Advertising

Grand Prairie weather history for previous 24 hours

 ConditionsComfort  
Time TempWeatherWind HumidityBarometerVisibility
1:55 AM
Tue, May 26
63 °FLow clouds.No wind100%29.92 "Hg7 mi
1:35 AM62 °FPassing clouds.No wind100%29.91 "Hg7 mi
1:15 AM62 °FClear.3 mph100%29.92 "Hg7 mi
12:55 AM62 °FClear.3 mph100%29.92 "Hg10 mi
12:35 AM63 °FClear.No wind100%29.91 "Hg10 mi
12:15 AM63 °FClear.No wind100%29.92 "Hg10 mi
11:55 PM
Mon, May 25
63 °FClear.No wind100%29.91 "Hg10 mi
11:35 PM64 °FClear.5 mph100%29.90 "Hg10 mi
11:15 PM64 °FClear.3 mph100%29.90 "Hg10 mi
10:35 PM64 °FClear.5 mph100%29.90 "Hg10 mi
10:15 PM64 °FClear.7 mph100%29.88 "Hg10 mi
9:55 PM64 °FClear.7 mph100%29.87 "Hg10 mi
9:35 PM64 °FClear.8 mph100%29.86 "Hg10 mi
9:15 PM64 °FSunny.10 mph100%29.86 "Hg10 mi
8:55 PM64 °FSunny.8 mph100%29.85 "Hg10 mi
8:35 PM64 °FSunny.7 mph100%29.85 "Hg10 mi
8:15 PM64 °FSunny.5 mph100%29.83 "Hg10 mi
7:50 PM64 °FSunny.3 mph100%29.83 "Hg10 mi
6:50 PM64 °FSunny.5 mph100%29.82 "Hg10 mi
5:50 PM63 °FSunny.No wind100%29.85 "Hg10 mi
4:50 PM64 °FScattered clouds.25 mph100%29.84 "Hg10 mi
3:50 PM64 °FPartly sunny.14 mph100%29.84 "Hg10 mi
2:50 PM79 °FScattered clouds.16 mph79%29.90 "Hg10 mi
1:50 PM75 °FBroken clouds.6 mph89%29.82 "Hg10 mi
12:50 PM75 °FBroken clouds.12 mph89%29.89 "Hg7 mi
11:50 AM75 °FPartly sunny.14 mph89%29.90 "Hg10 mi
10:50 AM75 °FPartly sunny.9 mph89%29.92 "Hg10 mi
9:50 AM75 °FMild.8 mph89%29.92 "Hg10 mi
7:50 AM70 °FFog.6 mph100%29.92 "Hg5 mi
6:50 AM70 °FFog.8 mph100%29.91 "Hg3 mi
6:35 AM70 °FLow clouds.8 mph100%29.91 "Hg7 mi
6:15 AM70 °FMostly cloudy.13 mph100%29.89 "Hg7 mi
5:55 AM71 °FLow clouds.10 mph100%29.89 "Hg7 mi
5:35 AM71 °FLow clouds.8 mph100%29.89 "Hg10 mi
5:15 AM71 °FLow clouds.8 mph100%29.89 "Hg10 mi
4:55 AM70 °FLow clouds.8 mph100%29.88 "Hg10 mi
4:15 AM70 °FOvercast.8 mph100%29.88 "Hg10 mi
3:55 AM70 °FOvercast.8 mph100%29.88 "Hg10 mi
3:35 AM70 °FPassing clouds.7 mph100%29.88 "Hg10 mi
3:15 AM70 °FPassing clouds.6 mph100%29.88 "Hg10 mi
Weather by CustomWeather, © 2015

See weather overviewHow to use our weather pages